Showing default

ION-MK01, 46274

Orbit data source: Space-Track

ION-MK01, 46274 is a payload satellite owned by D-ORBIT (IT) in SSO that was launched on Thu, 03 Sep 2020 UTC via a VEGA launch vehicle from the French Guiana (FRGUI). Payload-class satellites include a variety of spacecraft equipped with specific instruments for various scientific and technological missions. These include communications satellites like Starlink; space stations such as the ISS; scientific satellites like the Hubble; Earth observation satellites from companies like Planet Labs, Umbra, and HawkEye 360; GPS; miniature CubeSats for education and research; and military/defense satellites.

Loading next visibility...
Identifier
46274, 2020-061C
Orbit
SSO
Country
Flag of ITIT
Related business
Manufacturer
D-ORBIT
Mission
Operational Commercial Technology
Bus & Motor
ION-SC, PM200
Mass
220 kg wet, 150 kg dry
Launch date (UTC)
2020-09-03 (5 years ago)
Launch vehicle
VEGA
Launch site
French Guiana (FRGUI)
Object type
Payload
Rocket body
Debris
Shape & HBR
Box, 0.2 m
Radar Cross Section
0.240 m², Medium (>0.1 m² and < 1m²)

Expand to show TLE details & history
Last TLE update: 8 hours ago

TLE from 8 hours ago
0 ION-MK01
1 46274U 20061C   26062.17343228  .00179165  00000-0  75387-3 0  9990
2 46274  97.1985 140.7165 0001609 238.5587 121.5526 15.85022739306612
Epoch: 2026-03-03T04:09Z
TLE epoch observation values (Epoch: 2026-03-03T04:09:44.548Z)
Latitude
-0.00011°
Longitude
-82.67539°
Altitude
320.009 km
Speed
7.716 km/s
True Right ascension
09h 22m 51s
True Declination
0° 00' 00"
Sunlit
Object was in full shadow at epoch
Visualization orbit readout
Latitude
Unknown
Longitude
Unknown
Altitude
Unknown
Speed
Unknown
Apparent Right ascension
Unknown
Apparent Declination
Unknown
Sunlit
N/A
Visualization observer readout
Local Sidereal Time
16:09:17
Azimuth
Unknown
Elevation
Unknown
Doppler factor
Unknown
Orbital elements
Apogee altitude
314.208 km
Perigee altitude
312.055 km
Semi-major axis
6,691.268 km
Eccentricity
0.00016
Inclination
97.1985°
RAAN
140.7165°
Arg. of periapsis
238.5587°
True anomaly
121.56831°
Mean anomaly
121.5526°
Eccentric anomaly
121.56046°
Mean motion
3.96534 °/min
Orbital period
90.79 mins
BSTAR
0.00075387
Loading maneuver chart data...
Computing Atmospheric mass density...
Loading historical data...
Loading historical data...
Loading historical data...
Loading historical data...
Loading historical data...
Loading historical data...
Loading historical data...

Documentation

Showing up to 5 results
|